EWG2X EDDK-EGPH

Flight info

Callsign EWG2X
Flight time 1h 26m
Altitude 24000
Route WIPUR1F WIPUR P64 SONEB/N0437F380 P64 TENLI L602 SPY DCT AMGOD DCT GODOS DCT AGPED
Aircraft A320/M-SDE3FGHIRWY/LB1

Departure

Time 2026-05-04 10:36
Airport Cologne Bonn Airport (EDDK)

Arrival

Time 2026-05-04 12:02
Airport Edinburgh Airport (EGPH)
Time Latitude Longitude Altitude Speed Heading
2026-05-04 10:16 50.87967 7.12430 232 ft 0 kts 246°
2026-05-04 10:30 50.87971 7.12445 230 ft 4 kts 243°
2026-05-04 10:30 50.87986 7.12478 232 ft 4 kts 214°
2026-05-04 10:30 50.88006 7.12487 234 ft 3 kts 145°
2026-05-04 10:31 50.88009 7.12484 232 ft 0 kts 138°
2026-05-04 10:33 50.88002 7.12493 230 ft 6 kts 138°
2026-05-04 10:33 50.87962 7.12551 230 ft 8 kts 138°
2026-05-04 10:33 50.87935 7.12612 230 ft 6 kts 99°
2026-05-04 10:34 50.87957 7.12670 232 ft 6 kts 40°
2026-05-04 10:34 50.87982 7.12714 233 ft 7 kts 54°
2026-05-04 10:34 50.87996 7.12758 236 ft 3 kts 66°
2026-05-04 10:34 50.88008 7.12828 236 ft 7 kts 83°
2026-05-04 10:35 50.88007 7.12889 237 ft 8 kts 98°
2026-05-04 10:35 50.87979 7.12997 239 ft 10 kts 123°
2026-05-04 10:35 50.87941 7.13062 241 ft 6 kts 137°
2026-05-04 10:35 50.87913 7.13101 242 ft 25 kts 138°
2026-05-04 10:36 50.87579 7.13585 247 ft 100 kts 137°
2026-05-04 10:36 50.86917 7.14544 262 ft 156 kts 138°
2026-05-04 10:36 50.86119 7.15706 885 ft 158 kts 139°
2026-05-04 10:36 50.85302 7.16871 1703 ft 156 kts 139°
2026-05-04 10:37 50.84502 7.18039 2371 ft 163 kts 140°
2026-05-04 10:37 50.83604 7.19312 2762 ft 182 kts 141°
2026-05-04 10:37 50.82607 7.20700 3180 ft 202 kts 139°
2026-05-04 10:37 50.81735 7.22605 3650 ft 226 kts 117°
2026-05-04 10:39 50.84365 7.35715 8740 ft 259 kts
2026-05-04 10:39 50.86163 7.35867 9658 ft 260 kts 354°
2026-05-04 10:39 50.88008 7.35375 10120 ft 280 kts 343°
2026-05-04 10:40 50.89973 7.34546 10468 ft 304 kts 342°
2026-05-04 10:40 50.92089 7.33618 10813 ft 326 kts 342°
2026-05-04 10:40 50.94314 7.32632 11458 ft 336 kts 342°
2026-05-04 10:40 50.96552 7.31641 12233 ft 342 kts 342°
2026-05-04 10:41 50.98865 7.30621 12997 ft 348 kts 342°
2026-05-04 10:41 51.01213 7.29590 13776 ft 353 kts 342°
2026-05-04 10:41 51.03590 7.28508 14445 ft 357 kts 338°
2026-05-04 10:41 51.05843 7.26839 15136 ft 358 kts 325°
2026-05-04 10:42 51.07900 7.24583 15820 ft 361 kts 321°
2026-05-04 10:42 51.09951 7.22263 16518 ft 364 kts 321°
2026-05-04 10:42 51.12029 7.19913 17215 ft 368 kts 321°
2026-05-04 10:42 51.14099 7.17574 17911 ft 372 kts 321°
2026-05-04 10:43 51.16218 7.15180 18549 ft 375 kts 321°
2026-05-04 10:44 51.31549 6.97769 22852 ft 399 kts 320°
2026-05-04 10:45 51.33817 6.95180 23441 ft 402 kts 320°
2026-05-04 10:45 51.36107 6.92571 23950 ft 405 kts 319°
2026-05-04 10:45 51.38464 6.90053 24460 ft 411 kts 325°
2026-05-04 10:45 51.41083 6.88135 24960 ft 420 kts 335°
2026-05-04 10:46 51.43944 6.86975 25420 ft 429 kts 347°
2026-05-04 10:46 51.46888 6.86431 25875 ft 433 kts 349°
2026-05-04 10:46 51.49892 6.85908 26325 ft 435 kts 349°
2026-05-04 10:46 51.52908 6.85373 26794 ft 438 kts 348°
2026-05-04 10:47 51.55946 6.84830 27254 ft 440 kts 348°
2026-05-04 10:47 51.59000 6.84280 27663 ft 443 kts 348°
2026-05-04 10:47 51.62071 6.83721 28098 ft 445 kts 348°
2026-05-04 10:47 51.65158 6.83157 28509 ft 448 kts 348°
2026-05-04 10:49 51.87166 6.79187 30996 ft 463 kts 348°
2026-05-04 10:49 51.90375 6.78611 31298 ft 465 kts 348°
2026-05-04 10:50 51.93589 6.78027 31578 ft 466 kts 347°
2026-05-04 10:51 52.10159 6.58544 34269 ft 419 kts 299°
2026-05-04 10:52 52.11837 6.54676 34608 ft 418 kts 299°
2026-05-04 10:52 52.13514 6.50818 34915 ft 417 kts 299°
2026-05-04 10:52 52.15168 6.47010 35183 ft 418 kts 299°
2026-05-04 10:54 52.25953 6.19051 36808 ft 412 kts 284°
2026-05-04 10:54 52.26904 6.14638 37037 ft 412 kts 284°
2026-05-04 10:56 52.33586 5.83573 37993 ft 417 kts 284°
2026-05-04 10:56 52.34542 5.79097 37991 ft 417 kts 284°
2026-05-04 10:57 52.36434 5.70209 37991 ft 417 kts 284°
2026-05-04 10:57 52.38329 5.61239 38003 ft 417 kts 284°
2026-05-04 10:58 52.40217 5.52257 38016 ft 417 kts 285°
2026-05-04 10:58 52.42101 5.43280 38027 ft 417 kts 285°
2026-05-04 10:59 52.43967 5.34331 38020 ft 418 kts 285°
2026-05-04 10:59 52.45836 5.25316 38014 ft 418 kts 285°
2026-05-04 11:00 52.47709 5.16284 38018 ft 418 kts 285°
2026-05-04 11:02 52.55851 4.80597 38012 ft 424 kts 299°
2026-05-04 11:05 52.78979 4.19045 38028 ft 425 kts 298°
2026-05-04 11:06 52.82060 4.10728 38025 ft 424 kts 298°
2026-05-04 11:06 52.85134 4.02392 38041 ft 424 kts 298°
2026-05-04 11:10 53.13420 3.53754 38029 ft 439 kts 328°
2026-05-04 11:12 53.29327 3.31542 38038 ft 429 kts 300°
2026-05-04 11:12 53.30939 3.27348 38034 ft 429 kts 300°
2026-05-04 11:12 53.34163 3.18950 38034 ft 429 kts 300°
2026-05-04 11:13 53.37363 3.10605 38038 ft 429 kts 300°
2026-05-04 11:13 53.40582 3.02174 38052 ft 430 kts 300°
2026-05-04 11:14 53.43797 2.93719 38054 ft 430 kts 300°
2026-05-04 11:16 53.56597 2.59806 38063 ft 431 kts 300°
2026-05-04 11:16 53.59793 2.51267 38065 ft 431 kts 300°
2026-05-04 11:17 53.62964 2.42766 38075 ft 431 kts 300°
2026-05-04 11:19 53.75643 2.08464 38089 ft 431 kts 300°
2026-05-04 11:19 53.78795 1.99841 38085 ft 431 kts 300°
2026-05-04 11:20 53.81945 1.91210 38082 ft 431 kts 300°
2026-05-04 11:20 53.85092 1.82566 38075 ft 431 kts 300°
2026-05-04 11:22 53.97602 1.47903 38094 ft 432 kts 300°
2026-05-04 11:23 54.00697 1.39227 38100 ft 432 kts 300°
2026-05-04 11:25 54.11532 1.08696 38085 ft 431 kts 300°
2026-05-04 11:25 54.14616 0.99945 38091 ft 430 kts 301°
2026-05-04 11:27 54.28414 0.60362 38098 ft 432 kts 300°
2026-05-04 11:28 54.31465 0.51523 38097 ft 431 kts 300°
2026-05-04 11:28 54.34511 0.42661 38094 ft 431 kts 300°
2026-05-04 11:29 54.37527 0.33842 38094 ft 431 kts 300°
2026-05-04 11:29 54.40558 0.24955 38092 ft 431 kts 300°
2026-05-04 11:33 54.61563 -0.37465 38101 ft 431 kts 300°
2026-05-04 11:33 54.64547 -0.46453 38100 ft 431 kts 300°
2026-05-04 11:34 54.67522 -0.55458 38098 ft 432 kts 300°
2026-05-04 11:34 54.70490 -0.64482 38099 ft 432 kts 300°
2026-05-04 11:35 54.73455 -0.73523 37892 ft 432 kts 300°
2026-05-04 11:35 54.74915 -0.77981 37627 ft 431 kts 300°
2026-05-04 11:35 54.76382 -0.82480 37368 ft 429 kts 300°
2026-05-04 11:36 54.77846 -0.86977 37091 ft 428 kts 300°
2026-05-04 11:36 54.79310 -0.91474 36819 ft 429 kts 300°
2026-05-04 11:36 54.80774 -0.95978 36555 ft 429 kts 300°
2026-05-04 11:36 54.82234 -1.00490 36295 ft 429 kts 300°
2026-05-04 11:37 54.83693 -1.05011 36034 ft 430 kts 300°
2026-05-04 11:37 54.85148 -1.09531 35742 ft 427 kts 301°
2026-05-04 11:37 54.86569 -1.13950 35241 ft 423 kts 301°
2026-05-04 11:37 54.87997 -1.18395 34720 ft 420 kts 301°
2026-05-04 11:38 54.89412 -1.22802 34199 ft 417 kts 301°
2026-05-04 11:38 54.90821 -1.27192 33634 ft 414 kts 302°
2026-05-04 11:38 54.92215 -1.31544 33122 ft 410 kts 302°
2026-05-04 11:38 54.93592 -1.35854 32621 ft 406 kts 302°
2026-05-04 11:39 54.94954 -1.40127 32117 ft 402 kts 302°
2026-05-04 11:39 54.96301 -1.44363 31627 ft 398 kts 302°
2026-05-04 11:40 55.04055 -1.68929 28867 ft 372 kts 302°
2026-05-04 11:41 55.05292 -1.72862 28449 ft 367 kts 302°
2026-05-04 11:41 55.06512 -1.76748 28036 ft 363 kts 302°
2026-05-04 11:41 55.07715 -1.80586 27623 ft 358 kts 302°
2026-05-04 11:41 55.08904 -1.84384 27213 ft 354 kts 301°
2026-05-04 11:42 55.10062 -1.88093 26797 ft 351 kts 301°
2026-05-04 11:42 55.11223 -1.91815 26381 ft 347 kts 301°
2026-05-04 11:42 55.12373 -1.95504 25974 ft 344 kts 301°
2026-05-04 11:42 55.13551 -1.99181 25461 ft 350 kts 302°
2026-05-04 11:43 55.14773 -2.02873 24946 ft 351 kts 302°
2026-05-04 11:43 55.16005 -2.06553 24445 ft 350 kts 302°
2026-05-04 11:43 55.17232 -2.10232 23949 ft 350 kts 301°
2026-05-04 11:43 55.18451 -2.13905 23412 ft 350 kts 301°
2026-05-04 11:44 55.19662 -2.17587 22883 ft 348 kts 301°
2026-05-04 11:44 55.20844 -2.21203 22381 ft 346 kts 301°
2026-05-04 11:44 55.22034 -2.24849 21894 ft 344 kts 300°
2026-05-04 11:44 55.23219 -2.28479 21399 ft 342 kts 300°
2026-05-04 11:45 55.24400 -2.32094 20929 ft 341 kts 300°
2026-05-04 11:45 55.25577 -2.35700 20417 ft 340 kts 300°
2026-05-04 11:45 55.26748 -2.39297 19927 ft 339 kts 299°
2026-05-04 11:45 55.27916 -2.42884 19448 ft 338 kts 299°
2026-05-04 11:46 55.29081 -2.46465 18963 ft 337 kts 299°
2026-05-04 11:46 55.30242 -2.50043 18482 ft 337 kts 299°
2026-05-04 11:46 55.31381 -2.53567 17965 ft 337 kts 299°
2026-05-04 11:46 55.32533 -2.57133 17472 ft 335 kts 299°
2026-05-04 11:47 55.33676 -2.60680 16997 ft 333 kts 298°
2026-05-04 11:47 55.34808 -2.64205 16584 ft 329 kts 298°
2026-05-04 11:47 55.35933 -2.67709 16101 ft 328 kts 298°
2026-05-04 11:47 55.37047 -2.71184 15650 ft 326 kts 298°
2026-05-04 11:48 55.38154 -2.74646 15290 ft 322 kts 298°
2026-05-04 11:48 55.39246 -2.78068 14870 ft 320 kts 298°
2026-05-04 11:48 55.40319 -2.81433 14428 ft 319 kts 298°
2026-05-04 11:48 55.41404 -2.84828 14015 ft 317 kts 299°
2026-05-04 11:49 55.42479 -2.88203 13576 ft 315 kts 298°
2026-05-04 11:49 55.43546 -2.91558 13104 ft 313 kts 298°
2026-05-04 11:49 55.44597 -2.94867 12862 ft 304 kts 299°
2026-05-04 11:49 55.45804 -2.97833 12683 ft 295 kts 313°
2026-05-04 11:50 55.47406 -3.00044 12375 ft 293 kts 328°
2026-05-04 11:50 55.49290 -3.01393 12066 ft 293 kts 339°
2026-05-04 11:50 55.51233 -3.02453 11757 ft 291 kts 340°
2026-05-04 11:50 55.53163 -3.03512 11437 ft 291 kts 340°
2026-05-04 11:51 55.55064 -3.04559 11090 ft 289 kts 339°
2026-05-04 11:51 55.56980 -3.05622 10733 ft 288 kts 339°
2026-05-04 11:51 55.58885 -3.06683 10365 ft 286 kts 338°
2026-05-04 11:51 55.60782 -3.07738 9991 ft 285 kts 340°
2026-05-04 11:52 55.62671 -3.08790 9569 ft 285 kts 339°
2026-05-04 11:52 55.64554 -3.09840 9167 ft 283 kts 339°
2026-05-04 11:52 55.66423 -3.10885 8770 ft 280 kts 340°
2026-05-04 11:52 55.68313 -3.11557 8468 ft 278 kts 356°
2026-05-04 11:53 55.70221 -3.11531 8067 ft 278 kts 357°
2026-05-04 11:53 55.72145 -3.11402 7660 ft 276 kts 358°
2026-05-04 11:53 55.74056 -3.11250 7321 ft 272 kts 358°
2026-05-04 11:53 55.75907 -3.11111 7213 ft 260 kts 359°
2026-05-04 11:55 55.88043 -3.10097 4696 ft 246 kts 359°
2026-05-04 11:55 55.89749 -3.09966 4310 ft 245 kts 359°
2026-05-04 11:56 55.91447 -3.09829 3920 ft 243 kts 359°
2026-05-04 11:56 55.93131 -3.09684 3557 ft 241 kts 359°
2026-05-04 11:56 55.94800 -3.09549 3249 ft 237 kts 359°
2026-05-04 11:56 55.96407 -3.09420 3123 ft 226 kts 358°
2026-05-04 11:57 55.97936 -3.09262 3008 ft 215 kts 359°
2026-05-04 11:57 55.99356 -3.09091 2995 ft 200 kts 359°
2026-05-04 11:57 56.00667 -3.09111 3021 ft 176 kts 341°
2026-05-04 11:57 56.01696 -3.10022 2980 ft 159 kts 315°
2026-05-04 11:58 56.02356 -3.11531 2958 ft 153 kts 292°
2026-05-04 11:58 56.02602 -3.13346 2877 ft 151 kts 271°
2026-05-04 11:58 56.02412 -3.15171 2755 ft 151 kts 248°
2026-05-04 11:58 56.01895 -3.16793 2581 ft 150 kts 241°
2026-05-04 11:59 56.01357 -3.18389 2411 ft 150 kts 241°
2026-05-04 11:59 56.00824 -3.19974 2192 ft 149 kts 241°
2026-05-04 11:59 56.00296 -3.21546 1993 ft 150 kts 240°
2026-05-04 11:59 55.99780 -3.23076 1781 ft 137 kts 240°
2026-05-04 12:00 55.99305 -3.24488 1604 ft 130 kts 242°
2026-05-04 12:00 55.98848 -3.25845 1435 ft 126 kts 242°
2026-05-04 12:00 55.98396 -3.27184 1254 ft 126 kts 240°
2026-05-04 12:00 55.97951 -3.28506 1090 ft 124 kts 241°
2026-05-04 12:01 55.97500 -3.29838 944 ft 126 kts 243°
2026-05-04 12:01 55.97046 -3.31196 732 ft 129 kts 241°
2026-05-04 12:02 55.94826 -3.37773 114 ft 21 kts 239°
2026-05-04 12:03 55.94753 -3.37981 113 ft 15 kts 239°
2026-05-04 12:03 55.94683 -3.38051 114 ft 13 kts 157°
2026-05-04 12:03 55.94658 -3.38024 114 ft 0 kts 148°
2026-05-04 12:03 55.94654 -3.38019 115 ft 5 kts 147°
2026-05-04 12:04 55.94594 -3.37946 116 ft 7 kts 128°
2026-05-04 12:04 55.94597 -3.37867 113 ft 7 kts 63°
2026-05-04 12:04 55.94639 -3.37743 116 ft 12 kts 59°
2026-05-04 12:04 55.94683 -3.37614 115 ft 12 kts 58°
2026-05-04 12:05 55.94725 -3.37491 116 ft 11 kts 58°
2026-05-04 12:05 55.94768 -3.37363 116 ft 17 kts 59°
2026-05-04 12:05 55.94832 -3.37173 113 ft 18 kts 58°
2026-05-04 12:05 55.94894 -3.36992 115 ft 17 kts 59°
2026-05-04 12:06 55.94950 -3.36824 114 ft 16 kts 58°
2026-05-04 12:06 55.95005 -3.36664 115 ft 15 kts 59°
2026-05-04 12:06 55.95056 -3.36514 115 ft 14 kts 59°
2026-05-04 12:06 55.95110 -3.36353 116 ft 16 kts 59°
2026-05-04 12:07 55.95133 -3.36215 115 ft 11 kts 106°
2026-05-04 12:07 55.95111 -3.36094 113 ft 10 kts 108°
2026-05-04 12:07 55.95089 -3.35994 114 ft 3 kts 137°
2026-05-04 12:07 55.95072 -3.36006 116 ft 5 kts 216°
2026-05-04 12:08 55.95050 -3.36056 115 ft 5 kts 233°
2026-05-04 12:08 55.95039 -3.36083 113 ft 2 kts 233°
2026-05-04 12:08 55.95036 -3.36089 115 ft 0 kts 233°